Regional Weather Roundup
Issued by NWS Kansas City/Pleasant Hill, MO

Home | Current Version | Previous Version | Graphics & Text | Print | Product List | Glossary Off
Versions: 1 2 3 4 5 6 7 8 9 10 11 12 13 14 15 16 17 18 19 20 21 22 23 24 25 26 27 28 29 30 31 32 33 34 35 36 37 38 39 40 41 42 43 44 45 46 47 48 49 50

000
ASUS43 KEAX 262204
RWREAX

WEATHER ROUNDUP FOR EASTERN KANSAS AND NORTHWEST MISSOURI
NATIONAL WEATHER SERVICE KANSAS CITY/PLEASANT HILL MO
400 PM CST FRI DEC 26 2014

KSZ040-057-103>105-MOZ028-029-037-043-262300-
...KANSAS CITY METROPOLITAN AREA...

CITY           SKY/WX    TMP DP  RH WIND       PRES   REMARKS
K.C. INTL      CLOUDY    41  35  79 NW8       29.92R
K.C. DOWNTOWN  CLOUDY    47  37  68 NW7       29.91R
LEES SUMMIT    CLOUDY    52  42  69 NW5       29.90R
OLATHE - IXD   CLOUDY    45  37  73 NW9       29.92R
OLATHE - OJC   CLOUDY    49  39  68 NW8       29.90R
LAWRENCE       CLOUDY    42  34  73 N12       29.93R

$$

MOZ001>008-011>017-020>025-030>033-038>040-044>046-053-054-262300-
...NORTHERN AND CENTRAL MISSOURI...

CITY           SKY/WX    TMP DP  RH WIND       PRES   REMARKS
ST. JOSEPH     CLOUDY    38  33  82 N10       29.96R WCI  31
MOSBY          CLOUDY    46  39  76 N6        29.91R
WARRENSBURG    CLOUDY    55  45  67 S3        29.90S
WHITEMAN AFB   NOT AVBL
CLINTON        CLOUDY    55  46  71 S12       29.92S
SEDALIA        CLOUDY    58  45  62 S10       29.92S
WARSAW         NOT AVBL
MARSHALL       CLOUDY    59  48  67 CALM      29.93
CHILLICOTHE      N/A     53  42  66 CALM      29.93F
KIRKSVILLE     CLOUDY    54  42  64 S7        29.95R

$$

MOZ041-047>049-056>058-063>065-088>090-097-262300-
...EASTERN AND SOUTHERN MISSOURI...

CITY           SKY/WX    TMP DP  RH WIND       PRES   REMARKS
ST. LOUIS INTL MOCLDY    60  43  53 S13G20    30.02R
SPIRIT OF STL  MOCLDY    59  43  55 S8        30.00R
COLUMBIA       PTCLDY    59  45  59 S16       29.94F
JEFFERSON CITY PTCLDY    59  44  57 S13       29.95F
HANNIBAL       CLOUDY    57  41  54 S7        29.96S
ROLLA          MOCLDY    54  44  69 S13       29.97F
LEBANON        MOCLDY    54  45  71 SE14      29.97F
OSAGE BEACH    CLOUDY    55  43  62 S10       29.96F
SPRINGFIELD    CLOUDY    52  45  77 SE18      29.94S
BRANSON        CLOUDY    50  46  87 SE15      29.98F
JOPLIN         CLOUDY    53  50  89 S5        29.91S
WEST PLAINS    CLOUDY    50  40  68 S14       30.04S

$$

IAZ060-094-KSZ022-034>040-054-083-096-NEZ052-066-093-262300-
...KANSAS...SOUTHEAST NEBRASKA AND IOWA...

CITY           SKY/WX    TMP DP  RH WIND       PRES   REMARKS
TOPEKA         CLOUDY    40  34  79 N8        29.95S WCI  34
MANHATTAN      CLOUDY    35  33  92 N5        29.97R FOG     WCI  31
EMPORIA        CLOUDY    40  33  76 N8        29.91S WCI  34
CHANUTE        CLOUDY    55  47  74 S5        29.89R
WICHITA        CLOUDY    38  32  79 NW15      29.93R WCI  29
OMAHA          CLOUDY    33  30  88 N12       30.00S WCI  24
LINCOLN        CLOUDY    32  27  81 N17       30.00F WCI  21
FALLS CITY     CLOUDY    36  31  82 N5        29.96R WCI  32
LAMONI         CLOUDY    39  33  79 N7        29.94S WCI  34
DES MOINES     CLOUDY    35  31  85 N5        29.98R FOG     WCI  31

$$




USA.gov is the U.S. government's official web portal to all federal, state and local government web resources and services.